Погода в Армасан-дус-Бузиус

Бразилия     22°46′04″S   41°54′02″W
темп.,
°C
ветер,
м/с
пор.,
м/с
влажн.,
%
обл.,
%
осадки,
мм/ч
давл.,
гПа
погр.,
м
8 мая, сб
сб800:00+20ю4792100 3.4 1022369
03:00+20ю2389100 6.8 1021135
06:00+20юз2288100 1.9 1023122
09:00+20зсз229064 2.8 102591
12:00+23ю247470 1.9 1024654
15:00+23ююв3466100 2.2 1023767
18:00+22ююв2370100 0.0 1024152
21:00+21юв2370100 0.1 1025162
9 мая, вс
вс900:00+21вюв0271100 0.0 1025183
03:00+20всв017538 0.0 1023185
06:00+19вюв338423 0.1 1024159
09:00+21в347985 1.1 1025541
12:00+21в348082 1.4 1024600
15:00+21вюв457163 1.7 1023799
18:00+20вюв466994 0.0 1024368
21:00+20вюв346889 0.0 1025317
10 мая, пн
пн1000:00+20в2367100 0.0 1024279
03:00+20в2268100 0.0 1023215
06:00+20в237061 0.0 1024226
09:00+21в336618 0.3 1025931
12:00+23в325661 0.1 10231335
15:00+22в43580 0.1 1021973
18:00+19в346716 0.0 1021217
21:00+18всв35693 0.0 1022246
11 мая, вт
вт1100:00+18св45770 0.0 1020270
03:00+17ссв46810 0.0 1018230
06:00+17св47802 0.0 1018228
09:00+21св68655 0.0 1019503
12:00+24св66564 0.0 1016730
15:00+24всв56611 0.0 1013504
18:00+21всв48815 0.0 1014200
21:00+19ссв57853 0.0 1015188
12 мая, ср
ср1200:00+18ссв46885 0.0 1014161
03:00+18ссв47875 0.0 1012167
06:00+18ссв348799 0.0 101292
09:00+23ссз2268100 0.0 1012233
12:00+26юз676294 0.0 1012767
15:00+24юз71074100 0.0 1012820
18:00+22юз61088100 0.4 1014663
21:00+19юз489355 8.6 1017458